QPF
0.00 0.00 0.00 0.00 0.00 0.00 0.00 0.00 0.00 0.00 0.00 0.00 0.00 0.00 0.00 0.00 0.00 0.00 0.00 0.00 0.00 0.00 0.00 0.00 0.00 0.00 0.00 0.00 0.00 0.00 0.00 0.01 0.03 0.01 0.00 0.00 0.00 0.00 0.00 0.00 0.00 0.00 0.00
0.00 0.00 0.00 0.00 0.00 0.00 0.00 0.00 0.00 0.00 0.00 0.00 0.00 0.00 0.00 0.00 0.00 0.00 0.00 0.00 0.00 0.00 0.00 0.00 0.00 0.00 0.00 0.00 0.00 0.00 0.01 0.00 0.02 0.01 0.00 0.00 0.00 0.00 0.00 0.00 0.00 0.00 0.00
0.00 0.00 0.00 0.00 0.00 0.00 0.00 0.00 0.00 0.00 0.00 0.00 0.00 0.00 0.00 0.00 0.00 0.00 0.00 0.00 0.00 0.00 0.00 0.00 0.00 0.00 0.00 0.00 0.00 0.00 0.00 0.01 0.01 0.01 0.00 0.00 0.00 0.00 0.00 0.00 0.00 0.00 0.00
0.00 0.00 0.00 0.00 0.00 0.00 0.00 0.00 0.00 0.00 0.00 0.00 0.00 0.00 0.00 0.00 0.00 0.00 0.00 0.00 0.00 0.00 0.00 0.00 0.00 0.00 0.00 0.00 0.00 0.00 0.00 0.01 0.00 0.01 0.01 0.00 0.00 0.00 0.01 0.00 0.00 0.00 0.00
0.00 0.00 0.00 0.00 0.00 0.00 0.00 0.00 0.00 0.00 0.00 0.00 0.00 0.00 0.00 0.00 0.00 0.00 0.00 0.00 0.00 0.00 0.00 0.00 0.00 0.00 0.00 0.00 0.00 0.00 0.00 0.01 0.01 0.00 0.00 0.01 0.01 0.01 0.01 0.00 0.00 0.00 0.00
0.00 0.00 0.00 0.00 0.00 0.00 0.00 0.00 0.00 0.00 0.00 0.00 0.00 0.00 0.00 0.00 0.00 0.00 0.00 0.00 0.00 0.00 0.00 0.00 0.00 0.00 0.00 0.00 0.00 0.00 0.00 0.01 0.01 0.01 0.01 0.01 0.01 0.01 0.01 0.00 0.00 0.00 0.00
0.00 0.00 0.00 0.00 0.00 0.00 0.00 0.00 0.00 0.00 0.00 0.00 0.00 0.00 0.00 0.00 0.00 0.00 0.00 0.00 0.00 0.00 0.00 0.00 0.00 0.00 0.00 0.00 0.00 0.00 0.00 0.00 0.00 0.01 0.01 0.01 0.01 0.01 0.01 0.01 0.00 0.00 0.00
0.00 0.00 0.00 0.00 0.00 0.00 0.00 0.00 0.00 0.00 0.00 0.00 0.00 0.00 0.00 0.00 0.00 0.00 0.00 0.00 0.00 0.00 0.00 0.00 0.00 0.00 0.00 0.00 0.00 0.00 0.00 0.00 0.00 0.00 0.00 0.01 0.01 0.01 0.01 0.00 0.00 0.00 0.00
0.00 0.00 0.00 0.00 0.00 0.00 0.00 0.00 0.00 0.00 0.00 0.00 0.00 0.00 0.00 0.00 0.00 0.00 0.00 0.00 0.00 0.00 0.00 0.00 0.00 0.00 0.00 0.00 0.00 0.00 0.00 0.00 0.00 0.00 0.00 0.00 0.00 0.00 0.00 0.00 0.00 0.00 0.00
0.00 0.00 0.00 0.00 0.00 0.00 0.00 0.00 0.00 0.00 0.00 0.00 0.00 0.00 0.00 0.00 0.00 0.00 0.00 0.00 0.00 0.00 0.00 0.00 0.00 0.00 0.00 0.00 0.00 0.00 0.00 0.00 0.00 0.00 0.00 0.00 0.00 0.00 0.00 0.00 0.01 0.00 0.00
0.00 0.00 0.00 0.00 0.00 0.00 0.00 0.00 0.00 0.00 0.00 0.00 0.00 0.00 0.00 0.00 0.00 0.00 0.00 0.00 0.00 0.00 0.00 0.00 0.00 0.00 0.00 0.00 0.00 0.00 0.00 0.00 0.00 0.00 0.00 0.00 0.00 0.00 0.00 0.00 0.00 0.01 0.00
0.00 0.00 0.00 0.00 0.00 0.00 0.00 0.00 0.00 0.00 0.00 0.00 0.00 0.00 0.00 0.00 0.00 0.00 0.00 0.00 0.00 0.00 0.00 0.00 0.00 0.00 0.00 0.00 0.00 0.00 0.00 0.00 0.00 0.00 0.00 0.00 0.00 0.00 0.00 0.00 0.00 0.00 0.00
0.00 0.00 0.00 0.00 0.00 0.00 0.00 0.00 0.00 0.00 0.00 0.00 0.00 0.00 0.00 0.00 0.00 0.00 0.00 0.00 0.00 0.00 0.00 0.00 0.00 0.00 0.00 0.00 0.00 0.00 0.00 0.00 0.00 0.00 0.00 0.00 0.00 0.00 0.00 0.00 0.00 0.00 0.00
0.00 0.00 0.00 0.00 0.00 0.00 0.00 0.00 0.00 0.00 0.00 0.00 0.00 0.00 0.00 0.00 0.00 0.00 0.00 0.00 0.00 0.00 0.00 0.00 0.00 0.00 0.00 0.00 0.00 0.00 0.00 0.00 0.00 0.00 0.00 0.00 0.00 0.00 0.00 0.00 0.00 0.00 0.00
0.00 0.00 0.00 0.00 0.00 0.00 0.00 0.00 0.00 0.00 0.00 0.00 0.00 0.00 0.00 0.00 0.00 0.00 0.00 0.00 0.00 0.00 0.00 0.00 0.00 0.00 0.00 0.00 0.00 0.00 0.00 0.00 0.00 0.00 0.00 0.00 0.00 0.00 0.00 0.00 0.00 0.00 0.00
0.00 0.00 0.00 0.00 0.00 0.00 0.00 0.00 0.00 0.00 0.00 0.00 0.00 0.00 0.00 0.00 0.00 0.00 0.00 0.00 0.00 0.00 0.00 0.00 0.00 0.00 0.00 0.00 0.00 0.00 0.00 0.00 0.00 0.00 0.00 0.00 0.00 0.00 0.00 0.00 0.00 0.00 0.00
0.00 0.00 0.00 0.00 0.00 0.00 0.00 0.00 0.00 0.00 0.00 0.00 0.00 0.00 0.00 0.00 0.00 0.00 0.00 0.00 0.00 0.00 0.00 0.00 0.00 0.00 0.00 0.00 0.00 0.00 0.00 0.00 0.00 0.00 0.00 0.00 0.00 0.00 0.00 0.00 0.00 0.00 0.00
0.00 0.00 0.00 0.00 0.00 0.00 0.00 0.00 0.00 0.00 0.00 0.00 0.00 0.00 0.00 0.00 0.00 0.00 0.00 0.00 0.00 0.00 0.00 0.00 0.00 0.00 0.00 0.00 0.00 0.00 0.00 0.00 0.00 0.00 0.00 0.00 0.00 0.00 0.00 0.00 0.00 0.00 0.00
0.00 0.00 0.00 0.00 0.00 0.00 0.00 0.00 0.00 0.00 0.00 0.00 0.00 0.00 0.00 0.00 0.00 0.00 0.00 0.00 0.00 0.00 0.00 0.00 0.00 0.00 0.00 0.00 0.00 0.00 0.00 0.00 0.00 0.00 0.00 0.00 0.00 0.00 0.00 0.00 0.00 0.00 0.00
0.00 0.00 0.00 0.00 0.00 0.00 0.00 0.00 0.00 0.00 0.00 0.00 0.00 0.00 0.00 0.00 0.00 0.00 0.00 0.00 0.00 0.00 0.00 0.00 0.00 0.00 0.00 0.00 0.00 0.00 0.00 0.00 0.00 0.00 0.00 0.00 0.00 0.00 0.00 0.00 0.00 0.00 0.00
0.00 0.00 0.00 0.00 0.00 0.00 0.00 0.00 0.00 0.00 0.00 0.00 0.00 0.00 0.00 0.00 0.00 0.00 0.00 0.00 0.00 0.00 0.00 0.00 0.00 0.00 0.00 0.00 0.00 0.00 0.00 0.00 0.00 0.00 0.00 0.00 0.00 0.00 0.00 0.00 0.00 0.00 0.00
0.00 0.00 0.00 0.00 0.00 0.00 0.00 0.00 0.00 0.00 0.00 0.00 0.00 0.00 0.00 0.00 0.00 0.00 0.00 0.00 0.00 0.00 0.00 0.00 0.00 0.00 0.00 0.00 0.00 0.00 0.00 0.00 0.00 0.00 0.00 0.00 0.00 0.00 0.00 0.00 0.00 0.00 0.00
0.00 0.00 0.00 0.00 0.00 0.00 0.00 0.00 0.00 0.00 0.00 0.00 0.00 0.00 0.00 0.00 0.00 0.00 0.00 0.00 0.00 0.00 0.00 0.00 0.00 0.00 0.00 0.00 0.00 0.00 0.00 0.00 0.00 0.00 0.00 0.00 0.00 0.00 0.00 0.00 0.00 0.00 0.00
0.00 0.00 0.00 0.00 0.00 0.00 0.00 0.00 0.00 0.00 0.00 0.00 0.00 0.00 0.00 0.00 0.00 0.00 0.00 0.00 0.00 0.00 0.00 0.00 0.00 0.00 0.00 0.00 0.00 0.00 0.00 0.00 0.00 0.00 0.00 0.00 0.00 0.00 0.00 0.00 0.00 0.00 0.00
0.00 0.00 0.00 0.00 0.00 0.00 0.00 0.00 0.00 0.00 0.00 0.00 0.00 0.00 0.00 0.00 0.00 0.00 0.00 0.00 0.00 0.00 0.00 0.00 0.00 0.00 0.00 0.00 0.00 0.00 0.00 0.00 0.00 0.00 0.00 0.00 0.00 0.00 0.00 0.00 0.00 0.00 0.00
0.00 0.00 0.00 0.00 0.00 0.00 0.00 0.00 0.00 0.00 0.00 0.00 0.00 0.00 0.00 0.00 0.00 0.00 0.00 0.00 0.00 0.00 0.00 0.00 0.00 0.00 0.00 0.00 0.00 0.00 0.00 0.00 0.00 0.00 0.00 0.00 0.00 0.00 0.00 0.00 0.00 0.00 0.00
MSLP
1017.76 1018.52 1019.14 1019.51 1019.73 1020.03 1019.95 1019.76 1019.80 1020.01 1020.06 1020.01 1019.97 1019.88 1019.69 1019.44 1019.26 1019.24 1019.04 1018.90 1018.78 1018.51 1018.29 1018.23 1018.05 1017.77 1017.26 1016.78 1016.28 1015.82 1015.44 1015.22 1014.68 1013.72 1013.36 1012.98 1012.86 1012.46 1012.12 1011.80 1011.15 1010.57 1009.77
1017.94 1018.61 1019.12 1019.50 1019.62 1019.59 1019.50 1019.65 1019.82 1019.82 1019.77 1019.77 1019.64 1019.50 1019.30 1019.04 1018.88 1018.77 1018.56 1018.33 1018.06 1017.79 1017.52 1017.50 1017.36 1017.08 1016.93 1016.43 1015.94 1015.64 1015.37 1015.32 1014.78 1013.70 1013.03 1013.08 1012.84 1012.51 1012.11 1011.53 1010.83 1010.09 1009.46
1018.10 1018.59 1019.05 1019.15 1019.15 1019.22 1019.42 1019.52 1019.73 1019.75 1019.52 1019.31 1019.22 1019.06 1018.79 1018.62 1018.46 1018.30 1018.19 1017.91 1017.65 1017.43 1017.19 1017.02 1016.96 1016.90 1016.33 1016.09 1015.83 1015.26 1014.90 1014.55 1014.38 1013.90 1013.32 1013.13 1012.69 1012.32 1011.50 1011.00 1010.61 1009.60 1008.74
1017.99 1018.32 1018.47 1018.68 1018.88 1019.08 1019.31 1019.45 1019.55 1019.49 1019.30 1019.04 1018.94 1018.72 1018.50 1018.31 1018.18 1018.03 1017.82 1017.59 1017.34 1017.11 1017.03 1016.85 1016.71 1016.37 1016.01 1015.69 1015.36 1015.04 1014.58 1014.28 1014.01 1013.60 1013.11 1012.51 1011.92 1011.67 1011.56 1010.76 1010.15 1009.05 1008.76
1017.73 1017.95 1018.14 1018.58 1018.81 1019.05 1019.12 1019.16 1019.25 1019.17 1018.89 1018.76 1018.63 1018.33 1018.17 1018.03 1017.75 1017.82 1017.56 1017.22 1017.07 1016.89 1016.70 1016.47 1016.21 1016.04 1015.93 1015.70 1015.47 1014.99 1014.74 1014.14 1013.82 1013.14 1012.79 1012.44 1012.01 1011.79 1011.37 1011.05 1010.40 1009.06 1008.82
1017.61 1017.83 1018.15 1018.52 1018.75 1018.94 1018.93 1018.87 1018.84 1018.71 1018.59 1018.52 1018.30 1018.04 1017.75 1017.58 1017.56 1017.70 1017.53 1016.98 1016.82 1016.65 1016.34 1016.08 1015.85 1015.70 1015.57 1015.36 1015.14 1014.92 1014.67 1014.24 1013.77 1013.33 1012.84 1012.35 1012.07 1011.70 1011.26 1010.79 1010.31 1009.70 1008.97
1017.37 1017.77 1018.10 1018.24 1018.51 1018.67 1018.70 1018.62 1018.52 1018.46 1018.41 1018.15 1017.87 1017.64 1017.39 1017.31 1017.39 1017.43 1017.25 1016.74 1016.59 1016.31 1016.04 1015.78 1015.63 1015.48 1015.23 1014.99 1014.70 1014.41 1014.15 1013.94 1013.62 1013.29 1012.77 1012.15 1011.67 1011.38 1011.22 1010.65 1010.18 1009.82 1009.45
1017.26 1017.39 1017.85 1018.10 1018.18 1018.51 1018.52 1018.42 1018.38 1018.30 1018.06 1017.76 1017.44 1017.28 1017.09 1016.90 1017.08 1017.16 1017.07 1016.64 1016.20 1015.83 1015.93 1015.79 1015.58 1015.11 1014.80 1014.79 1014.53 1014.06 1013.62 1013.22 1012.87 1012.64 1012.40 1011.79 1011.65 1011.39 1011.15 1010.63 1010.01 1009.77 1009.26
1016.86 1017.07 1017.55 1017.84 1017.88 1018.26 1018.20 1018.16 1018.16 1018.01 1017.66 1017.35 1017.15 1016.99 1016.77 1016.50 1016.82 1016.91 1016.84 1016.16 1015.50 1015.46 1015.45 1015.16 1014.98 1014.68 1014.45 1014.46 1014.31 1013.79 1013.18 1012.67 1012.20 1012.23 1012.13 1011.84 1011.49 1011.24 1011.07 1010.45 1009.49 1009.58 1008.96
1016.88 1017.26 1017.45 1017.73 1017.82 1018.12 1018.13 1018.07 1017.97 1017.77 1017.43 1017.17 1016.84 1016.68 1016.58 1016.44 1016.48 1016.56 1016.60 1015.85 1015.02 1014.76 1014.55 1014.10 1014.15 1014.12 1014.05 1014.06 1013.93 1013.46 1012.84 1012.39 1012.00 1011.66 1011.35 1011.10 1010.59 1010.37 1010.47 1010.20 1009.55 1009.34 1009.09
1016.77 1017.28 1017.51 1017.65 1017.84 1018.06 1018.05 1017.95 1017.79 1017.43 1017.18 1016.88 1016.54 1016.34 1016.26 1016.25 1016.16 1016.27 1016.20 1015.73 1014.84 1014.30 1013.82 1013.43 1012.98 1013.34 1013.44 1013.44 1013.38 1013.02 1012.54 1012.21 1011.87 1011.48 1011.08 1010.64 1010.21 1009.75 1009.83 1009.52 1009.42 1009.11 1008.88
1017.06 1017.38 1017.55 1017.51 1017.72 1017.85 1017.90 1017.64 1017.54 1017.28 1016.84 1016.47 1016.25 1015.85 1015.65 1015.84 1015.87 1015.92 1015.98 1015.77 1015.35 1014.48 1013.56 1012.92 1012.70 1012.71 1012.74 1012.66 1012.61 1012.30 1012.07 1011.85 1011.46 1011.20 1010.90 1010.27 1009.94 1009.37 1009.47 1009.27 1008.81 1008.39 1008.20
1017.27 1017.36 1017.43 1017.49 1017.66 1017.77 1017.58 1017.30 1016.99 1016.87 1016.63 1016.26 1016.00 1015.66 1015.44 1015.41 1015.40 1015.46 1015.41 1015.14 1014.76 1014.18 1013.37 1012.86 1012.62 1012.22 1011.94 1011.81 1011.54 1011.54 1011.48 1011.22 1011.01 1010.83 1010.58 1010.31 1009.97 1009.32 1009.35 1008.92 1008.35 1007.64 1007.27
1017.21 1017.26 1017.31 1017.26 1017.41 1017.33 1017.22 1016.92 1016.69 1016.45 1016.36 1016.29 1016.03 1015.72 1015.53 1015.34 1015.10 1015.08 1014.92 1014.84 1014.33 1013.67 1013.06 1012.31 1011.84 1011.44 1011.13 1010.93 1010.89 1010.86 1010.84 1010.77 1010.57 1010.35 1010.25 1010.18 1010.01 1009.31 1008.90 1008.66 1008.27 1007.60 1006.97
1017.19 1017.17 1017.13 1017.07 1017.15 1017.03 1016.90 1016.81 1016.55 1016.45 1016.64 1016.63 1016.33 1016.11 1015.70 1015.51 1015.31 1015.60 1015.26 1014.57 1013.93 1013.40 1012.88 1011.98 1011.18 1010.58 1010.26 1010.22 1010.25 1010.24 1010.32 1010.33 1010.22 1010.07 1009.98 1009.87 1009.70 1009.27 1008.73 1008.55 1008.26 1007.67 1006.98
1017.04 1016.92 1016.98 1016.97 1016.86 1016.76 1016.70 1016.28 1016.62 1016.71 1016.85 1016.80 1016.72 1016.67 1016.19 1016.02 1015.69 1015.28 1014.66 1013.93 1013.34 1012.75 1012.34 1011.61 1011.03 1010.68 1010.37 1010.11 1009.96 1009.85 1009.96 1009.90 1009.88 1009.80 1009.71 1009.64 1009.44 1009.17 1008.73 1008.55 1008.28 1007.75 1007.08
1016.94 1017.03 1017.03 1016.90 1016.83 1016.69 1016.65 1016.32 1015.87 1016.04 1016.41 1016.41 1016.46 1016.41 1016.20 1015.86 1015.35 1014.82 1014.09 1013.42 1012.78 1012.32 1012.01 1011.50 1011.03 1010.68 1010.37 1010.20 1009.91 1009.77 1009.64 1009.63 1009.65 1009.55 1009.50 1009.38 1009.26 1009.07 1008.84 1008.51 1008.30 1007.79 1007.46
1016.90 1017.41 1017.18 1016.72 1016.76 1016.67 1016.54 1016.34 1016.24 1015.99 1015.88 1015.61 1015.66 1015.87 1015.67 1015.45 1014.98 1014.27 1013.53 1012.88 1012.23 1011.94 1011.86 1011.42 1010.99 1010.64 1010.28 1010.06 1009.83 1009.62 1009.51 1009.44 1009.44 1009.30 1009.25 1009.18 1009.12 1009.00 1008.75 1008.56 1008.39 1008.02 1007.63
1016.83 1016.92 1016.90 1016.68 1016.58 1016.96 1016.70 1016.55 1016.22 1016.04 1015.87 1015.61 1015.29 1015.21 1015.24 1015.12 1014.41 1013.87 1013.36 1012.95 1012.58 1012.19 1012.00 1011.53 1011.08 1010.64 1010.25 1009.96 1009.74 1009.54 1009.40 1009.30 1009.22 1009.11 1009.07 1009.08 1009.06 1008.97 1008.78 1008.65 1008.52 1008.33 1007.98
1016.99 1017.47 1017.36 1016.71 1016.62 1016.63 1016.66 1016.74 1016.43 1016.23 1016.01 1015.80 1015.47 1015.17 1015.15 1014.80 1014.21 1013.80 1013.41 1013.23 1012.82 1012.46 1011.99 1011.50 1011.02 1010.64 1010.27 1009.92 1009.64 1009.46 1009.24 1009.10 1009.00 1008.94 1008.95 1008.98 1009.00 1008.96 1008.82 1008.74 1008.63 1008.35 1008.02
1016.80 1016.91 1017.58 1016.71 1016.76 1016.92 1017.07 1017.02 1016.79 1016.54 1016.30 1016.03 1015.65 1015.52 1015.98 1015.59 1014.74 1014.28 1013.86 1013.44 1013.00 1012.53 1011.99 1011.47 1010.94 1010.51 1010.16 1009.81 1009.55 1009.37 1009.15 1008.98 1008.88 1008.85 1008.90 1008.97 1009.06 1009.03 1008.91 1008.89 1008.81 1008.63 1008.34
1016.80 1016.96 1017.03 1017.16 1017.22 1017.38 1017.64 1017.30 1017.02 1016.85 1016.63 1016.26 1015.97 1016.01 1015.86 1015.45 1015.04 1014.68 1014.23 1013.61 1013.09 1012.58 1011.98 1011.47 1010.86 1010.37 1009.95 1009.60 1009.31 1009.16 1009.01 1008.90 1008.87 1008.91 1008.97 1009.10 1009.15 1009.09 1009.10 1009.05 1008.92 1008.74 1008.51
1017.04 1017.17 1017.32 1017.50 1017.57 1017.95 1017.88 1017.52 1017.31 1017.23 1016.98 1016.62 1016.73 1016.42 1016.03 1015.71 1015.44 1015.01 1014.44 1013.66 1013.03 1012.45 1011.75 1011.21 1010.66 1010.07 1009.59 1009.15 1008.88 1008.85 1008.86 1008.86 1008.92 1009.00 1009.08 1009.18 1009.25 1009.23 1009.22 1009.12 1008.99 1008.85 1008.73
1017.48 1017.62 1017.72 1017.85 1018.02 1018.27 1018.25 1017.80 1017.65 1017.54 1017.42 1017.24 1017.15 1016.86 1016.50 1016.15 1015.79 1015.20 1014.51 1013.75 1013.11 1012.42 1011.71 1011.03 1010.42 1009.88 1009.31 1008.83 1008.54 1008.50 1008.55 1008.90 1009.10 1009.22 1009.32 1009.36 1009.43 1009.48 1009.36 1009.21 1009.11 1009.03 1009.20
1017.99 1018.06 1018.27 1018.19 1018.47 1018.72 1018.43 1018.21 1018.10 1017.90 1017.74 1017.77 1017.64 1017.29 1016.90 1016.52 1016.03 1015.30 1014.65 1013.95 1013.26 1012.52 1011.73 1010.99 1010.31 1009.77 1009.26 1009.00 1008.81 1008.75 1009.03 1009.27 1009.38 1009.58 1009.55 1009.66 1009.67 1009.56 1009.37 1009.16 1009.25 1009.47 1009.70
1018.65 1018.73 1018.72 1018.67 1019.06 1019.08 1018.88 1018.70 1018.59 1018.46 1018.32 1018.32 1018.12 1017.73 1017.30 1016.87 1016.29 1015.52 1014.88 1014.22 1013.46 1012.65 1011.93 1011.17 1010.48 1009.94 1009.59 1009.45 1009.45 1009.50 1009.52 1009.71 1009.84 1009.90 1009.85 1009.96 1009.86 1009.69 1009.53 1009.53 1009.69 1009.93 1010.22
Thickness
5685 5675 5666 5657 5648 5638 5633 5629 5623 5613 5604 5596 5589 5583 5578 5573 5566 5559 5553 5547 5541 5536 5532 5525 5520 5516 5514 5513 5511 5509 5507 5504 5501 5507 5506 5505 5502 5502 5502 5505 5513 5519 5526
5679 5669 5658 5649 5641 5635 5631 5623 5614 5606 5599 5591 5585 5579 5573 5567 5560 5553 5547 5543 5539 5534 5530 5523 5518 5514 5508 5506 5505 5501 5498 5493 5492 5498 5501 5495 5494 5494 5496 5498 5504 5511 5518
5671 5661 5651 5643 5637 5631 5623 5616 5607 5600 5594 5587 5581 5575 5569 5561 5554 5547 5541 5537 5532 5528 5523 5518 5511 5506 5504 5500 5495 5495 5492 5490 5487 5486 5487 5485 5487 5487 5493 5495 5496 5505 5512
5664 5655 5647 5639 5632 5625 5617 5610 5602 5595 5588 5582 5575 5568 5561 5553 5547 5541 5535 5530 5526 5520 5514 5509 5503 5499 5496 5492 5488 5485 5484 5482 5480 5480 5480 5482 5486 5484 5483 5488 5490 5501 5501
5659 5651 5643 5633 5626 5619 5613 5606 5597 5590 5583 5576 5568 5562 5554 5547 5543 5534 5529 5524 5517 5511 5506 5501 5496 5491 5485 5480 5476 5475 5472 5474 5472 5475 5474 5473 5474 5473 5474 5476 5479 5491 5492
5652 5645 5636 5628 5621 5614 5608 5601 5593 5585 5577 5569 5561 5555 5549 5543 5535 5524 5518 5516 5509 5503 5499 5494 5489 5483 5477 5472 5468 5464 5462 5462 5461 5462 5462 5463 5462 5466 5468 5472 5474 5475 5481
5647 5638 5631 5624 5616 5609 5602 5595 5587 5578 5569 5563 5557 5550 5544 5537 5527 5518 5512 5510 5502 5497 5492 5487 5480 5474 5470 5466 5463 5459 5456 5454 5454 5454 5454 5457 5459 5461 5460 5465 5468 5470 5472
5641 5635 5626 5618 5612 5603 5595 5588 5580 5571 5564 5558 5552 5545 5539 5532 5521 5512 5505 5502 5496 5490 5481 5475 5470 5467 5465 5459 5455 5453 5453 5452 5451 5450 5450 5452 5451 5451 5452 5457 5463 5464 5468
5637 5630 5621 5613 5606 5597 5590 5582 5573 5565 5560 5554 5547 5540 5534 5528 5515 5506 5499 5497 5493 5483 5474 5470 5466 5462 5458 5453 5450 5448 5448 5449 5448 5445 5443 5443 5443 5443 5443 5449 5458 5457 5461
5631 5622 5615 5606 5598 5590 5583 5574 5566 5560 5554 5548 5541 5535 5528 5521 5511 5501 5491 5490 5489 5482 5473 5469 5462 5456 5451 5447 5444 5444 5443 5444 5443 5442 5442 5441 5441 5442 5440 5443 5449 5450 5451
5624 5615 5607 5600 5592 5584 5575 5567 5560 5555 5549 5543 5537 5531 5524 5515 5507 5495 5484 5482 5482 5476 5471 5466 5464 5455 5449 5444 5440 5439 5439 5437 5435 5435 5436 5438 5441 5443 5441 5443 5442 5444 5447
5613 5606 5600 5595 5587 5578 5569 5563 5555 5550 5545 5541 5534 5529 5522 5510 5499 5488 5476 5468 5465 5465 5466 5465 5460 5452 5446 5441 5437 5436 5434 5432 5431 5431 5431 5436 5438 5442 5438 5439 5443 5445 5448
5605 5601 5595 5589 5580 5571 5565 5560 5555 5548 5542 5538 5532 5526 5518 5507 5496 5485 5474 5465 5461 5459 5459 5456 5450 5447 5443 5439 5435 5431 5428 5427 5426 5427 5428 5429 5431 5436 5434 5437 5442 5448 5453
5601 5596 5590 5583 5575 5569 5563 5558 5552 5548 5541 5534 5527 5520 5511 5502 5494 5485 5476 5468 5463 5457 5452 5450 5446 5442 5438 5435 5430 5427 5423 5422 5422 5422 5422 5423 5424 5430 5433 5435 5438 5446 5454
5595 5591 5584 5580 5571 5566 5559 5553 5548 5542 5534 5528 5520 5510 5504 5497 5488 5473 5465 5463 5457 5450 5444 5442 5442 5441 5438 5431 5426 5422 5418 5415 5415 5416 5416 5417 5419 5424 5430 5431 5435 5443 5452
5591 5587 5581 5576 5570 5563 5556 5553 5539 5532 5524 5516 5507 5499 5496 5485 5476 5469 5464 5458 5452 5447 5442 5439 5436 5432 5428 5425 5421 5418 5412 5410 5409 5409 5410 5412 5414 5419 5425 5427 5431 5439 5450
5586 5582 5577 5571 5565 5559 5551 5548 5546 5537 5523 5514 5504 5494 5486 5478 5472 5467 5462 5456 5451 5444 5438 5432 5429 5425 5421 5416 5413 5410 5407 5405 5402 5402 5404 5408 5410 5415 5419 5423 5427 5435 5440
5581 5570 5573 5570 5561 5554 5549 5544 5540 5536 5529 5521 5508 5496 5487 5477 5471 5467 5462 5458 5454 5443 5433 5429 5424 5419 5415 5411 5406 5403 5400 5399 5398 5399 5401 5403 5407 5410 5415 5419 5422 5428 5435
5578 5575 5567 5563 5557 5548 5545 5539 5536 5530 5523 5516 5511 5501 5490 5480 5475 5468 5462 5455 5447 5438 5429 5423 5418 5413 5409 5405 5400 5398 5395 5397 5397 5398 5398 5400 5402 5406 5411 5414 5417 5420 5427
5571 5560 5557 5558 5555 5550 5543 5534 5530 5523 5516 5509 5504 5498 5489 5482 5477 5470 5461 5450 5441 5432 5426 5420 5414 5408 5403 5399 5396 5394 5393 5392 5393 5393 5395 5397 5399 5402 5407 5410 5414 5421 5429
5568 5563 5550 5555 5552 5545 5537 5529 5523 5517 5510 5504 5499 5490 5474 5472 5471 5465 5456 5448 5438 5432 5426 5419 5412 5406 5401 5397 5394 5391 5389 5390 5390 5391 5392 5394 5396 5399 5404 5406 5411 5417 5426
5565 5560 5555 5551 5547 5541 5529 5525 5519 5512 5505 5500 5494 5484 5475 5474 5469 5462 5454 5447 5438 5432 5426 5419 5413 5407 5402 5398 5396 5393 5392 5392 5392 5391 5391 5391 5393 5397 5400 5405 5410 5418 5425
5561 5555 5552 5547 5543 5532 5526 5522 5516 5507 5500 5496 5485 5481 5477 5473 5467 5461 5454 5449 5442 5436 5431 5424 5418 5414 5410 5406 5402 5397 5395 5394 5392 5391 5391 5391 5393 5397 5401 5407 5413 5419 5426
5554 5550 5548 5544 5538 5528 5521 5519 5512 5502 5496 5489 5482 5478 5475 5472 5467 5462 5457 5453 5446 5441 5437 5431 5426 5423 5420 5417 5414 5410 5406 5401 5397 5395 5394 5395 5396 5398 5402 5407 5413 5420 5426
5547 5546 5541 5540 5532 5522 5520 5515 5508 5501 5494 5485 5479 5477 5474 5471 5468 5466 5462 5457 5451 5447 5444 5439 5435 5432 5430 5426 5422 5418 5413 5407 5402 5399 5397 5397 5397 5400 5404 5410 5415 5420 5426
5541 5539 5537 5534 5525 5520 5517 5512 5505 5497 5491 5482 5478 5476 5474 5472 5471 5470 5466 5461 5457 5454 5450 5447 5443 5440 5436 5432 5427 5422 5417 5412 5406 5403 5401 5400 5401 5404 5408 5413 5417 5423 5428